Quincy Muni, Quincy, FL, FL

6:44 AM EDT on August 18, 2017 (GMT -0400)
Quincy Muni, Quincy, FL

Weather History for K2J9 - May, 2014

Change the Weather History Date:

Monday, May 12, 2014

  Actual Average (KTLH) Record (KTLH)
Temperature  
Mean Temperature 80 °F -  
Max Temperature 95 °F 85 °F 98 °F (2011)
Min Temperature 64 °F 58 °F 43 °F (1969)
Cooling Degree Days 14    
Growing Degree Days 30 (Base 50)    
Moisture  
Dew Point 68 °F    
Average Humidity 85    
Maximum Humidity 100    
Minimum Humidity 39    
Precipitation  
Precipitation 0.00 in - - ()
Sea Level Pressure  
Sea Level Pressure 30.14 in    
Wind  
Wind Speed 1 mph (East)    
Max Wind Speed 9 mph    
Max Gust Speed -    
Visibility 8 miles    
Events      
Averages and records for this station are not official NWS values.
T = Trace of Precipitation, MM = Missing Value Source: NWS Daily Summary

Daily Weather History Graph

Daily Weather History Graph

Search for Another Location

Airport or City:

Trip Planner

Search our weather history database for the weather conditions in past years. The results will help you decide how hot, cold, wet, or windy it might be!

Date:

Astronomy

May. 12, 2014 Rise Set
Actual Time 6:45 AM EDT 8:23 PM EDT
Civil Twilight 6:19 AM EDT 8:50 PM EDT
Nautical Twilight 5:48 AM EDT 9:21 PM EDT
Astronomical Twilight 5:15 AM EDT 9:54 PM EDT
Moon 6:29 PM EDT (5/12) 5:13 AM EDT (5/12)
Length of Visible Light 14h 30m
Length of Day
13h 38m
Waxing Gibbous, 95% of the Moon is Illuminated
May 12
Waxing Gibbous
May 14
Full
May 21
Last Quarter
May 28
New
Jun 5
First Quarter

Hourly Weather History & Observations

Time (EDT) Temp. Heat Index Dew Point Humidity Pressure Visibility Wind Dir Wind Speed Gust Speed Precip Events Conditions
12:15 AM 68.0 °F - 68.0 °F 100% 30.14 in 7.0 mi Calm Calm - N/A   Mostly Cloudy
12:35 AM 68.0 °F - 68.0 °F 100% 30.14 in 7.0 mi Calm Calm - N/A   Overcast
12:55 AM 68.0 °F - 66.2 °F 94% 30.14 in 6.0 mi Calm Calm - N/A   Overcast
1:15 AM 68.0 °F - 66.2 °F 94% 30.13 in 7.0 mi Calm Calm - N/A   Overcast
1:35 AM 68.0 °F - 66.2 °F 94% 30.13 in 6.0 mi Calm Calm - N/A   Overcast
1:55 AM 68.0 °F - 66.2 °F 94% 30.12 in 6.0 mi Calm Calm - N/A   Mostly Cloudy
2:15 AM 66.2 °F - 66.2 °F 100% 30.11 in 5.0 mi Calm Calm - N/A   Mostly Cloudy
2:35 AM 66.2 °F - 66.2 °F 100% 30.11 in 5.0 mi Calm Calm - N/A   Overcast
2:55 AM 66.2 °F - 66.2 °F 100% 30.11 in 6.0 mi Calm Calm - N/A   Mostly Cloudy
3:15 AM 66.2 °F - 66.2 °F 100% 30.12 in 5.0 mi Calm Calm - N/A   Overcast
3:35 AM 66.2 °F - 66.2 °F 100% 30.11 in 7.0 mi Calm Calm - N/A   Overcast
3:55 AM 66.2 °F - 66.2 °F 100% 30.11 in 5.0 mi Calm Calm - N/A   Mostly Cloudy
4:15 AM 66.2 °F - 64.4 °F 94% 30.11 in 5.0 mi Calm Calm - N/A   Overcast
4:35 AM 66.2 °F - 64.4 °F 94% 30.11 in 5.0 mi Calm Calm - N/A   Overcast
4:55 AM 66.2 °F - 64.4 °F 94% 30.11 in 5.0 mi Calm Calm - N/A   Overcast
5:15 AM 64.4 °F - 64.4 °F 100% 30.11 in 5.0 mi Calm Calm - N/A   Overcast
5:35 AM 66.2 °F - 64.4 °F 94% 30.12 in 5.0 mi Calm Calm - N/A   Overcast
5:55 AM 66.2 °F - 64.4 °F 94% 30.12 in 6.0 mi Calm Calm - N/A   Overcast
6:15 AM 66.2 °F - 64.4 °F 94% 30.13 in 6.0 mi Calm Calm - N/A   Overcast
6:35 AM 66.2 °F - 66.2 °F 100% 30.13 in 8.0 mi Calm Calm - N/A   Overcast
6:55 AM 66.2 °F - 66.2 °F 100% 30.15 in 5.0 mi Calm Calm - N/A   Mostly Cloudy
7:15 AM 66.2 °F - 66.2 °F 100% 30.15 in 6.0 mi Calm Calm - N/A   Partly Cloudy
7:35 AM 68.0 °F - 66.2 °F 94% 30.16 in 7.0 mi Calm Calm - N/A   Clear
7:55 AM 68.0 °F - 68.0 °F 100% 30.16 in 7.0 mi Calm Calm - N/A   Clear
8:15 AM 69.8 °F - 68.0 °F 94% 30.16 in 7.0 mi Calm Calm - N/A   Clear
8:35 AM 71.6 °F - 69.8 °F 94% 30.17 in 8.0 mi Calm Calm - N/A   Clear
8:55 AM 71.6 °F - 71.6 °F 100% 30.18 in 8.0 mi Calm Calm - N/A   Clear
9:55 AM 75.2 °F - 73.4 °F 94% 30.19 in 9.0 mi Calm Calm - N/A   Clear
10:15 AM 77.0 °F - 73.4 °F 89% 30.20 in 9.0 mi Calm Calm - N/A   Clear
10:35 AM 78.8 °F - 73.4 °F 83% 30.19 in 9.0 mi Calm Calm - N/A   Clear
10:55 AM 80.6 °F 85.4 °F 73.4 °F 79% 30.19 in 9.0 mi Calm Calm - N/A   Partly Cloudy
11:55 AM 84.2 °F 89.6 °F 71.6 °F 66% 30.19 in 10.0 mi ESE 5.8 mph - N/A   Partly Cloudy
12:35 PM 87.8 °F 93.8 °F 71.6 °F 58% 30.20 in 10.0 mi Calm Calm - N/A   Partly Cloudy
1:55 PM 93.2 °F 97.7 °F 68.0 °F 44% 30.18 in 10.0 mi Calm Calm - N/A   Partly Cloudy
2:15 PM 95.0 °F 99.5 °F 68.0 °F 41% 30.18 in 10.0 mi East 9.2 mph - N/A   Partly Cloudy
3:55 PM 91.4 °F 98.4 °F 71.6 °F 52% 30.14 in 10.0 mi East 5.8 mph - N/A   Scattered Clouds
4:15 PM 89.6 °F 96.2 °F 71.6 °F 55% 30.14 in 10.0 mi East 9.2 mph - N/A   Mostly Cloudy
4:55 PM 95.0 °F 101.3 °F 69.8 °F 44% 30.14 in 10.0 mi ESE 6.9 mph - N/A   Clear
5:35 PM 95.0 °F 98.5 °F 66.2 °F 39% 30.13 in 10.0 mi East 5.8 mph - N/A   Clear
5:55 PM 93.2 °F 97.7 °F 68.0 °F 44% 30.13 in 10.0 mi ESE 4.6 mph - N/A   Clear
6:15 PM 91.4 °F 95.4 °F 68.0 °F 46% 30.12 in 10.0 mi ENE 5.8 mph - N/A   Clear
7:35 PM 82.4 °F 86.3 °F 69.8 °F 66% 30.11 in 10.0 mi Calm Calm - N/A   Clear
7:55 PM 80.6 °F 83.9 °F 69.8 °F 70% 30.11 in 10.0 mi Calm Calm - N/A   Clear
8:15 PM 77.0 °F - 69.8 °F 78% 30.11 in 10.0 mi Calm Calm - N/A   Clear
8:35 PM 75.2 °F - 69.8 °F 83% 30.11 in 10.0 mi Calm Calm - N/A   Clear
8:55 PM 73.4 °F - 68.0 °F 83% 30.11 in 10.0 mi Calm Calm - N/A   Partly Cloudy
9:15 PM 73.4 °F - 68.0 °F 83% 30.11 in 10.0 mi Calm Calm - N/A   Scattered Clouds
9:35 PM 71.6 °F - 68.0 °F 88% 30.11 in 10.0 mi Calm Calm - N/A   Partly Cloudy
9:55 PM 71.6 °F - 68.0 °F 88% 30.12 in 8.0 mi Calm Calm - N/A   Clear
10:15 PM 69.8 °F - 68.0 °F 94% 30.12 in 8.0 mi Calm Calm - N/A   Partly Cloudy
10:35 PM 69.8 °F - 68.0 °F 94% 30.13 in 8.0 mi Calm Calm - N/A   Partly Cloudy
10:55 PM 68.0 °F - 68.0 °F 100% 30.13 in 7.0 mi Calm Calm - N/A   Clear
11:15 PM 68.0 °F - 66.2 °F 94% 30.12 in 7.0 mi Calm Calm - N/A   Partly Cloudy
11:35 PM 68.0 °F - 66.2 °F 94% 30.12 in 8.0 mi Calm Calm - N/A   Clear
11:55 PM 68.0 °F - 66.2 °F 94% 30.11 in 7.0 mi Calm Calm - N/A   Partly Cloudy